Crookston, MN

6:57 AM CST on January 22, 2018 (GMT -0600)
Crookston Municipal-Kirkwood

Weather History for KCKN - April, 2013

Change the Weather History Date:

Wednesday, April 10, 2013

  Actual Average Record
Temperature  
Mean Temperature 25 °F -  
Max Temperature 35 °F 47 °F 69 °F (2006)
Min Temperature 15 °F 28 °F 10 °F (1997)
Degree Days  
Heating Degree Days 40    
Moisture  
Dew Point 22 °F    
Average Humidity 81    
Maximum Humidity 93    
Minimum Humidity 65    
Precipitation  
Precipitation 0.00 in - - ()
Sea Level Pressure  
Sea Level Pressure 30.23 in    
Wind  
Wind Speed 8 mph (North)    
Max Wind Speed 16 mph    
Max Gust Speed -    
Visibility 10 miles    
Events      
Averages and records for this station are not official NWS values.
T = Trace of Precipitation, MM = Missing Value Source: NWS Daily Summary

Daily Weather History Graph

Daily Weather History Graph

Search for Another Location

Airport or City:

Trip Planner

Search our weather history database for the weather conditions in past years. The results will help you decide how hot, cold, wet, or windy it might be!

Date:

Astronomy

Apr. 10, 2013 Rise Set
Actual Time 6:46 AM CDT 8:09 PM CDT
Civil Twilight 6:14 AM CDT 8:41 PM CDT
Nautical Twilight 5:35 AM CDT 9:20 PM CDT
Astronomical Twilight 4:53 AM CDT 10:02 PM CDT
Moon 6:40 AM CDT (4/10) 8:51 PM CDT (4/10)
Length of Visible Light 14h 27m
Length of Day
13h 23m
New Moon, 0% of the Moon is Illuminated
Apr 10
New Moon
Apr 18
First Quarter
Apr 25
Full
May 2
Last Quarter
May 9
New

Hourly Weather History & Observations

Time (CDT) Temp. Windchill Dew Point Humidity Pressure Visibility Wind Dir Wind Speed Gust Speed Precip Events Conditions
12:14 AM 19.4 °F 8.6 °F 15.8 °F 86% 30.33 in 10.0 mi North 9.2 mph - N/A   Clear
12:34 AM 17.6 °F 6.4 °F 15.8 °F 93% 30.33 in 10.0 mi North 9.2 mph - N/A   Clear
12:52 AM 17.6 °F 7.3 °F 14.0 °F 86% 30.33 in 10.0 mi North 8.1 mph - N/A   Clear
1:15 AM 17.6 °F 6.4 °F 14.0 °F 86% 30.32 in 10.0 mi North 9.2 mph - N/A   Clear
1:34 AM 17.6 °F 7.3 °F 14.0 °F 86% 30.34 in 10.0 mi North 8.1 mph - N/A   Clear
1:55 AM 17.6 °F 9.3 °F 14.0 °F 86% 30.36 in 10.0 mi North 5.8 mph - N/A   Clear
2:15 AM 17.6 °F 9.3 °F 15.8 °F 93% 30.37 in 10.0 mi North 5.8 mph - N/A   Clear
2:34 AM 17.6 °F 12.3 °F 15.8 °F 93% 30.38 in 10.0 mi North 3.5 mph - N/A   Clear
2:55 AM 17.6 °F 10.7 °F 14.0 °F 86% 30.37 in 10.0 mi NNW 4.6 mph - N/A   Clear
3:12 AM 17.6 °F 10.7 °F 14.0 °F 86% 30.36 in 10.0 mi North 4.6 mph - N/A   Clear
3:34 AM 15.8 °F - 12.2 °F 86% 30.34 in 10.0 mi Calm Calm - N/A   Clear
7:02 AM 17.6 °F 9.3 °F 14.0 °F 86% 30.30 in 10.0 mi NW 5.8 mph - N/A   Clear
7:15 AM 17.6 °F 10.7 °F 15.8 °F 93% 30.30 in 10.0 mi NW 4.6 mph - N/A   Clear
7:34 AM 17.6 °F 9.3 °F 15.8 °F 93% 30.32 in 10.0 mi NW 5.8 mph - N/A   Clear
7:54 AM 17.6 °F 12.3 °F 15.8 °F 93% 30.34 in 10.0 mi WNW 3.5 mph - N/A   Clear
8:15 AM 17.6 °F 8.2 °F 15.8 °F 93% 30.34 in 10.0 mi NNW 6.9 mph - N/A   Clear
8:34 AM 17.6 °F 8.2 °F 15.8 °F 93% 30.33 in 10.0 mi North 6.9 mph - N/A   Clear
8:54 AM 19.4 °F 9.5 °F 15.8 °F 86% 30.32 in 10.0 mi North 8.1 mph - N/A   Clear
9:14 AM 19.4 °F 9.5 °F 17.6 °F 93% 30.31 in 10.0 mi North 8.1 mph - N/A   Clear
9:34 AM 19.4 °F 8.6 °F 17.6 °F 93% 30.31 in 10.0 mi North 9.2 mph - N/A   Clear
9:55 AM 21.2 °F 11.7 °F 17.6 °F 86% 30.30 in 10.0 mi North 8.1 mph - N/A   Clear
10:14 AM 21.2 °F 12.6 °F 17.6 °F 86% 30.28 in 10.0 mi NNE 6.9 mph - N/A   Clear
10:34 AM 23.0 °F 17.0 °F 17.6 °F 80% 30.27 in 10.0 mi NNE 4.6 mph - N/A   Clear
10:55 AM 24.8 °F 17.9 °F 17.6 °F 74% 30.28 in 10.0 mi North 5.8 mph - N/A   Clear
11:14 AM 26.6 °F 20.0 °F 19.4 °F 74% 30.28 in 10.0 mi North 5.8 mph - N/A   Clear
11:34 AM 26.6 °F 19.1 °F 21.2 °F 80% 30.28 in 10.0 mi North 6.9 mph - N/A   Clear
12:14 PM 28.4 °F 20.4 °F 21.2 °F 74% 30.27 in 10.0 mi North 8.1 mph - N/A   Clear
12:35 PM 28.4 °F 19.7 °F 23.0 °F 80% 30.26 in 10.0 mi North 9.2 mph - N/A   Clear
12:55 PM 28.4 °F 19.1 °F 23.0 °F 80% 30.25 in 10.0 mi North 10.4 mph - N/A   Clear
1:14 PM 28.4 °F 19.7 °F 24.8 °F 86% 30.25 in 10.0 mi North 9.2 mph - N/A   Clear
1:35 PM 30.2 °F 22.6 °F 23.0 °F 75% 30.24 in 10.0 mi North 8.1 mph - N/A   Clear
1:54 PM 30.2 °F 23.4 °F 23.0 °F 75% 30.24 in 10.0 mi North 6.9 mph - N/A   Clear
2:14 PM 33.8 °F 26.4 °F 24.8 °F 70% 30.24 in 10.0 mi North 9.2 mph - N/A   Clear
2:35 PM 33.8 °F 24.8 °F 24.8 °F 70% 30.23 in 10.0 mi North 12.7 mph - N/A   Clear
2:54 PM 30.2 °F 18.9 °F 26.6 °F 86% 30.23 in 10.0 mi North 16.1 mph - N/A   Clear
3:14 PM 32.0 °F 23.0 °F 26.6 °F 80% 30.22 in 10.0 mi North 11.5 mph - N/A   Clear
3:35 PM 33.8 °F 23.5 °F 26.6 °F 75% 30.20 in 10.0 mi North 16.1 mph - N/A   Clear
3:54 PM 33.8 °F 24.8 °F 26.6 °F 75% 30.20 in 10.0 mi North 12.7 mph - N/A   Clear
4:14 PM 33.8 °F 24.8 °F 26.6 °F 75% 30.19 in 10.0 mi North 12.7 mph - N/A   Clear
4:35 PM 33.8 °F 25.8 °F 26.6 °F 75% 30.18 in 10.0 mi North 10.4 mph - N/A   Clear
4:54 PM 33.8 °F 25.3 °F 26.6 °F 75% 30.17 in 10.0 mi North 11.5 mph - N/A   Clear
5:14 PM 33.8 °F 24.8 °F 26.6 °F 75% 30.15 in 10.0 mi North 12.7 mph - N/A   Clear
5:35 PM 33.8 °F 25.3 °F 28.4 °F 81% 30.14 in 10.0 mi North 11.5 mph - N/A   Clear
5:54 PM 35.6 °F 28.6 °F 24.8 °F 65% 30.14 in 10.0 mi NNE 9.2 mph - N/A   Clear
6:14 PM 35.6 °F 29.2 °F 24.8 °F 65% 30.14 in 10.0 mi NNE 8.1 mph - N/A   Clear
6:35 PM 35.6 °F 29.9 °F 24.8 °F 65% 30.15 in 10.0 mi NNE 6.9 mph - N/A   Clear
6:54 PM 35.6 °F 29.9 °F 24.8 °F 65% 30.14 in 10.0 mi NNE 6.9 mph - N/A   Clear
7:14 PM 35.6 °F 29.9 °F 24.8 °F 65% 30.13 in 10.0 mi NNE 6.9 mph - N/A   Clear
7:34 PM 33.8 °F 28.6 °F 26.6 °F 75% 30.12 in 10.0 mi North 5.8 mph - N/A   Clear
7:54 PM 33.8 °F 27.0 °F 26.6 °F 75% 30.11 in 10.0 mi NNE 8.1 mph - N/A   Clear
8:14 PM 33.8 °F 26.4 °F 28.4 °F 81% 30.12 in 10.0 mi North 9.2 mph - N/A   Scattered Clouds
8:35 PM 33.8 °F 26.4 °F 28.4 °F 81% 30.11 in 10.0 mi North 9.2 mph - N/A   Mostly Cloudy
8:54 PM 32.0 °F 24.8 °F 28.4 °F 87% 30.11 in 10.0 mi North 8.1 mph - N/A   Mostly Cloudy
9:14 PM 32.0 °F 24.2 °F 28.4 °F 87% 30.11 in 10.0 mi North 9.2 mph - N/A   Scattered Clouds
9:34 PM 30.2 °F 21.9 °F 28.4 °F 93% 30.08 in 10.0 mi North 9.2 mph - N/A   Clear
9:54 PM 30.2 °F 23.4 °F 26.6 °F 86% 30.08 in 10.0 mi NNE 6.9 mph - N/A   Clear
10:15 PM 30.2 °F 23.4 °F 24.8 °F 80% 30.08 in 10.0 mi NNE 6.9 mph - N/A   Clear
10:34 PM 30.2 °F 24.3 °F 23.0 °F 75% 30.07 in 10.0 mi NNE 5.8 mph - N/A   Clear
10:54 PM 30.2 °F - 23.0 °F 75% 30.08 in 10.0 mi Calm Calm - N/A   Clear
11:15 PM 28.4 °F 22.2 °F 24.8 °F 86% 30.08 in 10.0 mi North 5.8 mph - N/A   Mostly Cloudy
11:34 PM 30.2 °F 24.3 °F 24.8 °F 80% 30.07 in 10.0 mi North 5.8 mph - N/A   Mostly Cloudy
11:54 PM 28.4 °F 22.2 °F 24.8 °F 86% 30.07 in 10.0 mi NNE 5.8 mph - N/A   Scattered Clouds